User: anonymous   Login
Location: Unspecified
(0.0000°N, 0.0000°E)
Time: 19:00:21
(UTC+00:00)
Language:

Vela 6A - Orbit

View from above orbital plane
View from above orbital plane
View from above satellite
View from above satellite

Ground track
Ground track

The orbit data is extracted from the following two-line orbital elements,

1 04366U 70027A   15053.45832954  .00000389  00000-0  00000+0 0  9998
2 04366 050.4965 239.4197 6876299 083.8588 359.0618 00.21456926 28852
Epoch (UTC): 22 February 2015 10:59:59
Eccentricity: 0.6876299
inclination: 50.4965°
perigee height: 30436 km
apogee height: 192519 km
right ascension of ascending node: 239.4197°
argument of perigee: 83.8588°
revolutions per day: 0.21456926
mean anomaly at epoch: 359.0618°
orbit number at epoch: 2885

The dashed part of the orbit path shows where the satellite is in the earth's shadow,  

DLR